Location: Treviso
(45.6669°N, 12.2430°E)
Time: 16:43:28
(UTC+01:00)

ISS - Visible Passes

Search period start: 14 November 2018 00:00
Search period end: 24 November 2018 00:00
Orbit: 402 x 408 km, 51.6° (Epoch: 15 November)

Date Brightness Start Highest point End Pass type
(mag) Time Alt. Az. Time Alt. Az. Time Alt. Az.
14 Nov -0.3 04:12:25 11° ESE 04:12:25 11° ESE 04:12:31 10° ESE visible
14 Nov -2.3 05:45:07 21° SW 05:45:30 21° SW 05:48:03 10° S visible
15 Nov -1.5 04:55:31 18° SSE 04:55:31 18° SSE 04:56:36 10° SSE visible
